Date,TemperatureHighF,TemperatureAvgF,TemperatureLowF,DewpointHighF,DewpointAvgF,DewpointLowF,HumidityHigh,HumidityAvg,HumidityLow,PressureMaxIn,PressureMinIn,WindSpeedMaxMPH,WindSpeedAvgMPH,GustSpeedMaxMPH,PrecipitationSumIn
2013-1-1,38.0,36.6,34.0,29.0,27.5,22.0,80,70,54,29.93,29.83,11,4,14,0.00
2013-1-2,34.0,28.9,22.0,27.0,18.8,11.0,77,66,50,30.12,29.92,12,4,21,0.00
2013-1-3,22.0,20.0,17.0,15.0,13.7,12.0,83,76,67,30.12,30.08,0,0,3,0.00
2013-1-4,31.0,30.5,30.0,21.0,19.8,19.0,66,64,63,30.10,30.07,17,9,36,0.00
2013-1-6,39.0,38.5,37.0,31.0,29.8,29.0,73,71,66,30.07,29.99,9,5,20,0.00
2013-1-7,38.0,31.7,25.0,29.0,24.9,22.0,90,76,58,30.38,30.07,9,2,0,0.00
2013-1-8,52.0,34.0,22.0,31.0,25.0,20.0,94,73,33,30.31,30.22,4,0,0,0.00
2013-1-9,56.0,40.7,27.0,47.0,33.5,24.0,91,77,59,30.39,30.18,11,3,0,0.00
2013-1-10,45.0,43.1,41.0,34.0,32.5,30.0,70,66,65,30.44,30.39,8,5,0,0.00
2013-1-11,36.0,35.0,34.0,32.0,30.8,29.0,85,84,82,30.24,30.22,3,1,6,0.00
2013-1-12,68.0,50.6,39.0,55.0,46.5,39.0,100,88,57,30.09,30.00,7,1,14,0.00
2013-1-13,65.0,57.7,43.0,56.0,52.5,43.0,100,84,69,29.99,29.92,3,1,9,0.00
2013-1-16,42.0,41.7,41.0,34.0,33.2,30.0,72,71,67,29.93,29.88,10,6,21,0.00
2013-1-17,42.0,36.8,33.0,31.0,25.6,19.0,87,65,44,30.06,29.91,12,3,20,0.00
2013-1-18,39.0,31.5,26.0,24.0,14.2,4.0,67,50,24,30.40,30.02,12,3,29,0.00
2013-1-19,57.0,45.1,26.0,23.0,17.4,13.0,71,37,18,30.19,29.84,19,6,30,0.00
2013-1-20,49.0,44.8,37.0,30.0,25.5,16.0,57,47,33,29.85,29.74,19,8,38,0.00
2013-1-21,41.0,34.0,28.0,17.0,11.9,8.0,60,41,25,29.96,29.74,14,5,29,0.00
2013-1-22,15.0,12.8,11.0,-2.0,-3.8,-7.0,53,47,36,30.14,30.09,10,2,18,0.00
2013-1-23,12.0,10.9,10.0,-2.0,-2.9,-4.0,55,53,49,30.14,30.12,4,2,0,0.00
2013-1-24,21.0,15.4,8.0,13.0,4.3,-1.0,89,62,38,30.41,30.00,9,2,8,0.00
2013-1-25,26.0,14.2,7.0,20.0,9.0,1.0,90,80,64,30.38,29.91,6,1,0,0.00
2013-1-26,31.0,27.3,25.0,23.0,19.1,16.0,84,71,63,30.16,29.88,7,2,0,0.00
2013-1-29,53.0,52.0,51.0,50.0,49.1,49.0,92,90,89,29.90,29.87,2,1,3,0.00
2013-1-30,68.0,56.1,49.0,58.0,52.8,46.0,100,90,70,29.88,29.22,19,4,8,0.00
2013-1-31,54.0,30.6,26.0,48.0,19.8,12.0,86,64,53,29.77,29.21,17,9,0,0.00
2013-2-1,28.0,17.8,13.0,22.0,6.5,0.0,86,61,50,30.23,29.71,12,6,0,0.00
2013-2-2,30.0,20.7,9.0,26.0,13.6,2.0,96,75,51,30.23,29.86,5,1,0,0.00
2013-2-3,33.0,28.0,22.0,24.0,19.6,11.0,95,71,56,29.89,29.69,10,3,0,0.00
2013-2-4,37.0,29.8,22.0,29.0,20.2,10.0,98,70,45,29.96,29.75,9,2,0,0.00
2013-2-5,39.0,36.1,30.0,36.0,32.6,29.0,100,87,74,29.84,29.73,8,1,0,0.00
2013-2-6,39.0,33.3,25.0,34.0,26.6,22.0,97,76,66,30.22,29.82,8,3,0,0.00
2013-2-7,29.0,26.1,24.0,24.0,23.1,22.0,92,88,79,30.28,30.20,2,0,0,0.00
2013-3-11,52.0,50.9,50.0,47.0,45.9,45.0,83,83,82,29.86,29.83,1,0,3,0.00
2013-3-12,52.0,43.0,38.0,48.0,34.5,27.0,86,72,64,30.00,29.80,9,5,26,0.11
2013-3-13,40.0,33.9,28.0,31.0,25.4,19.0,94,72,49,30.09,29.94,15,5,26,0.02
2013-3-14,39.0,32.3,26.0,21.0,18.0,16.0,69,56,44,30.17,30.09,12,5,26,0.01
2013-3-15,54.0,41.3,29.0,34.0,25.7,17.0,68,54,43,30.11,29.82,327,4,327,0.00
2013-3-16,59.0,48.3,42.0,50.0,41.8,34.0,91,79,66,29.85,29.62,10,4,15,0.05
2013-3-17,46.0,38.4,32.0,41.0,32.4,27.0,95,79,72,30.20,29.88,10,4,15,0.01
2013-3-18,34.0,31.6,30.0,33.0,30.1,28.0,97,94,88,30.21,29.85,6,2,10,0.16
2013-3-19,50.0,40.3,31.0,35.0,24.4,9.0,98,60,23,29.96,29.75,17,7,31,0.47
2013-3-20,46.0,37.2,31.0,30.0,16.8,11.0,85,45,30,29.98,29.78,11,6,29,0.02
2013-3-21,31.0,26.4,23.0,24.0,14.4,10.0,76,60,50,29.90,29.80,11,5,18,0.00
2013-3-22,25.0,25.0,25.0,14.0,13.2,13.0,63,60,59,29.91,29.90,8,5,17,0.00
2013-3-23,40.0,37.5,35.0,22.0,20.5,20.0,59,50,44,29.99,29.97,2,1,4,0.00
2013-3-24,40.0,32.0,28.0,31.0,24.9,21.0,96,76,50,29.98,29.60,5,2,9,0.00
2013-3-25,37.0,33.8,29.0,33.0,29.7,27.0,97,85,73,29.68,29.51,7,2,14,0.46
2013-3-26,43.0,36.8,34.0,32.0,28.3,26.0,87,72,51,30.04,29.72,7,3,17,0.36
2013-3-27,40.0,36.6,33.0,31.0,27.7,23.0,84,70,61,30.16,30.03,9,5,20,0.03
2013-3-28,42.0,38.4,34.0,30.0,27.5,25.0,74,64,59,30.25,30.11,7,4,23,0.00
2013-3-29,52.0,43.1,36.0,31.0,27.5,25.0,74,55,37,30.26,30.17,7,2,14,0.00
2013-3-30,57.0,43.6,30.0,32.0,27.0,23.0,86,56,29,30.24,30.09,6,2,13,0.00
2013-3-31,49.0,41.0,36.0,45.0,36.7,26.0,97,85,61,30.08,29.76,7,1,17,0.26
2013-4-1,50.0,45.0,37.0,42.0,33.6,16.0,85,65,39,30.00,29.76,12,4,22,0.01
2013-4-2,44.0,36.8,31.0,19.0,14.7,11.0,55,41,28,30.16,30.00,10,4,20,0.00
2013-4-3,46.0,36.1,27.0,19.0,15.2,12.0,68,45,26,30.36,30.16,10,4,20,0.00
2013-4-4,50.0,35.3,22.0,32.0,18.3,12.0,75,52,29,30.36,30.03,8,3,14,0.00
2013-4-5,59.0,46.1,35.0,33.0,29.9,25.0,90,58,30,30.09,29.91,10,3,24,0.00
2013-4-6,59.0,44.9,28.0,25.0,20.4,16.0,68,41,19,30.29,30.09,6,3,11,0.12
2013-4-7,71.0,57.0,45.0,43.0,34.3,23.0,58,43,33,30.16,29.95,10,3,17,0.11
2013-4-8,77.0,63.3,47.0,47.0,44.2,41.0,81,53,30,30.10,29.94,8,3,17,0.00
2013-4-9,84.0,71.1,61.0,54.0,50.5,46.0,62,49,31,30.14,29.98,8,4,16,0.00
2013-4-10,88.0,74.9,61.0,59.0,52.7,49.0,65,48,29,30.03,29.86,11,4,22,0.00
2013-4-11,83.0,69.1,54.0,56.0,53.1,50.0,87,60,36,29.95,29.72,7,3,11,0.00
2013-4-12,73.0,62.7,51.0,62.0,50.0,35.0,97,67,37,29.85,29.63,13,5,27,0.90
2013-4-13,64.0,53.5,46.0,37.0,32.8,24.0,60,47,25,29.99,29.84,13,6,24,0.01
2013-4-14,68.0,53.4,40.0,43.0,37.4,32.0,78,56,36,30.15,29.99,6,3,9,0.00
2013-4-15,62.0,55.1,49.0,52.0,47.1,40.0,94,75,57,30.23,30.09,8,3,14,0.06
2013-4-16,80.0,66.6,56.0,59.0,55.6,51.0,89,69,47,30.24,30.09,7,4,22,0.01
2013-4-17,76.0,65.2,55.0,62.0,58.6,54.0,98,81,61,30.24,30.15,6,3,23,0.12
2013-4-18,77.0,67.4,59.0,63.0,58.2,55.0,91,74,56,30.21,29.96,12,4,23,0.00
2013-4-19,72.0,62.4,48.0,60.0,53.1,38.0,87,72,64,29.96,29.62,15,6,27,0.59
2013-4-20,54.0,46.0,39.0,38.0,28.3,24.0,68,50,34,30.35,29.86,14,6,22,0.03
2013-4-21,54.0,41.7,30.0,31.0,26.9,25.0,83,58,33,30.57,30.35,6,2,11,0.00
2013-4-22,58.0,44.7,31.0,34.0,28.8,24.0,82,57,30,30.52,30.34,8,3,15,0.00
2013-4-23,68.0,49.5,33.0,45.0,37.5,31.0,93,67,35,30.37,30.08,6,2,10,0.00
2013-4-24,48.0,44.9,43.0,42.0,40.9,40.0,90,86,80,30.09,30.04,1,0,2,0.00
2013-4-29,64.0,54.9,47.0,56.0,51.5,46.0,98,89,74,30.10,30.01,5,2,9,0.05
2013-4-30,64.0,56.8,52.0,56.0,53.1,51.0,97,88,71,30.29,30.09,7,3,11,0.03
2013-5-1,71.0,59.5,52.0,53.0,46.6,38.0,96,68,30,30.40,30.29,6,2,11,0.00
2013-5-2,72.0,58.4,42.0,47.0,41.3,35.0,88,56,29,30.42,30.30,5,2,15,0.00
2013-5-3,69.0,57.6,41.0,50.0,44.4,40.0,97,64,43,30.36,30.25,9,4,16,0.00
2013-5-4,67.0,53.0,37.0,46.0,40.3,33.0,91,64,44,30.31,30.15,12,3,19,0.00
2013-5-5,67.0,53.5,40.0,43.0,39.3,35.0,93,62,33,30.21,30.09,9,3,16,0.00
2013-5-6,57.0,51.2,47.0,54.0,47.3,41.0,97,87,69,30.16,30.04,7,4,15,0.02
2013-5-7,59.0,56.0,53.0,58.0,55.2,52.0,99,98,95,30.04,29.95,7,4,13,1.58
2013-5-8,64.0,54.6,51.0,54.0,52.6,51.0,100,93,69,30.03,29.95,3,1,15,1.16
2013-5-9,75.0,62.0,49.0,57.0,52.6,48.0,100,75,40,30.06,29.94,5,2,16,0.09
2013-5-10,79.0,60.1,52.0,64.0,55.0,-99.9,98,87,50,30.08,29.91,5,1,17,0.24
2013-5-11,70.0,62.6,58.0,63.0,56.9,50.0,99,83,60,29.91,29.80,7,3,16,0.28
2013-5-12,58.0,50.9,41.0,49.0,34.0,-99.9,79,56,38,30.06,29.84,9,4,19,0.02
2013-5-13,52.0,45.7,36.0,34.0,30.6,26.0,88,57,37,30.19,30.05,7,3,20,0.00
2013-5-14,64.0,46.6,29.0,48.0,36.0,28.0,98,72,32,30.21,30.01,3,1,7,0.01
2013-5-15,89.0,67.3,43.0,62.0,49.9,42.0,97,61,28,30.03,29.79,9,4,18,0.01
2013-5-16,79.0,62.0,61.0,61.0,28.1,-99.9,90,64,36,30.03,29.85,9,4,16,0.05
2013-5-17,82.0,65.4,53.0,60.0,45.9,-99.9,98,71,36,30.15,30.02,5,2,12,0.05
2013-5-18,70.0,62.9,56.0,64.0,58.0,53.0,94,85,72,30.22,30.14,4,1,8,0.00
2013-5-19,64.0,60.4,59.0,62.0,59.2,58.0,98,96,92,30.20,30.11,4,2,8,0.01
2013-5-20,82.0,68.9,57.0,67.0,63.0,57.0,100,84,57,30.14,30.02,4,1,7,0.01
2013-5-21,88.0,72.1,58.0,68.0,63.0,58.0,100,77,42,30.05,29.90,3,1,9,0.00
2013-5-22,70.0,64.8,62.0,65.0,61.6,59.0,98,89,83,29.97,29.91,3,1,5,0.16
2013-5-23,79.0,68.0,61.0,67.0,61.3,55.0,100,81,55,29.94,29.80,10,2,23,0.12
2013-5-24,66.0,52.2,43.0,56.0,41.6,31.0,83,68,53,30.25,29.84,10,4,24,0.00
2013-5-25,60.0,49.3,37.0,39.0,34.6,31.0,80,59,41,30.28,30.21,8,3,23,0.00
2013-5-26,70.0,54.3,36.0,40.0,33.9,26.0,92,53,23,30.28,30.20,6,2,16,0.00
2013-5-27,60.0,52.0,39.0,52.0,45.1,37.0,94,78,60,30.32,30.20,3,0,5,0.01
2013-5-28,85.0,65.8,51.0,64.0,55.9,50.0,98,75,40,30.22,30.08,5,2,14,0.01
2013-5-29,87.0,73.3,57.0,62.0,58.9,56.0,97,65,37,30.18,30.11,6,-43,17,0.00
2013-5-30,90.0,73.4,58.0,70.0,62.1,57.0,95,71,40,30.26,30.16,2,-208,8,0.00
2013-5-31,78.0,66.0,58.0,61.0,59.0,57.0,95,79,50,30.20,30.07,0,0,3,0.00
2013-6-1,78.0,68.2,63.0,68.0,63.5,60.0,95,85,72,30.09,29.95,2,0,8,0.04
2013-6-2,79.0,69.7,63.0,67.0,62.3,-99.9,97,83,63,29.97,29.90,7,2,17,0.03
2013-6-3,76.0,66.0,58.0,66.0,60.5,54.0,99,84,56,30.04,29.91,5,1,9,0.06
2013-6-4,59.0,51.4,48.0,54.0,49.3,47.0,97,93,82,30.14,30.04,3,1,6,0.01
2013-6-6,63.0,62.6,62.0,63.0,61.7,61.0,99,97,96,29.98,29.89,2,1,3,0.68
2013-6-7,69.0,64.5,62.0,67.0,63.6,61.0,100,97,90,29.89,29.73,4,1,8,0.07
2013-6-8,80.0,66.3,58.0,63.0,58.7,55.0,95,78,49,30.14,29.84,6,1,9,0.01
2013-6-9,78.0,67.6,56.0,68.0,62.5,55.0,99,84,69,30.22,30.11,4,1,9,0.00
2013-6-10,74.0,67.9,61.0,71.0,66.4,60.0,100,95,87,30.13,29.86,3,0,8,0.55
2013-6-11,76.0,69.9,61.0,65.0,62.3,60.0,99,78,66,29.95,29.86,8,3,20,0.01
2013-6-12,85.0,76.2,65.0,69.0,65.7,62.0,92,71,53,29.97,29.88,4,-214,11,0.00
2013-6-13,76.0,66.8,62.0,68.0,63.1,57.0,99,88,73,29.90,29.62,8,3,24,1.29
2013-6-14,76.0,66.1,59.0,59.0,55.3,52.0,85,70,52,30.07,29.74,8,3,24,0.01
2013-6-15,81.0,65.9,51.0,59.0,54.3,50.0,99,71,38,30.16,30.06,4,1,11,0.00
2013-6-16,79.0,70.4,60.0,65.0,61.3,55.0,91,74,60,30.10,29.97,9,3,21,0.00
2013-6-17,85.0,74.9,68.0,67.0,64.2,61.0,88,71,50,30.03,29.95,4,-140,11,0.00
2013-6-18,73.0,67.9,64.0,68.0,64.8,62.0,98,90,76,29.99,29.89,2,1,6,0.13
2013-6-19,75.0,66.3,61.0,65.0,61.9,60.0,99,87,63,30.16,29.96,5,1,8,0.01
2013-6-20,82.0,66.3,57.0,66.0,60.8,57.0,99,85,49,30.27,30.19,3,-238,6,0.00
2013-6-22,86.0,82.2,75.0,71.0,67.8,64.0,78,62,50,30.28,30.16,0,-926,7,0.00
2013-6-23,87.0,71.7,60.0,70.0,65.0,59.0,99,82,49,30.25,30.13,2,-378,7,0.09
2013-6-24,85.0,72.2,62.0,73.0,67.5,62.0,100,86,61,30.22,30.10,2,-440,15,0.14
2013-6-25,90.0,76.8,64.0,70.0,66.8,64.0,100,75,43,30.14,29.98,1,-595,21,0.01
2013-6-26,81.0,73.0,66.0,70.0,67.7,65.0,96,84,63,30.00,29.91,2,-499,10,0.03
2013-6-27,78.0,71.3,63.0,71.0,67.2,63.0,100,87,73,29.83,29.73,4,-270,12,0.35
2013-6-28,82.0,73.3,67.0,70.0,66.1,63.0,91,79,60,29.73,29.59,5,-408,24,0.20
2013-6-29,84.0,71.7,60.0,66.0,61.7,59.0,97,73,46,29.76,29.61,5,-416,14,0.02
2013-6-30,83.0,70.2,60.0,70.0,64.9,59.0,99,85,59,29.90,29.76,2,-445,10,1.07
2013-7-1,82.0,71.6,66.0,71.0,67.9,66.0,100,89,63,29.99,29.89,2,-402,7,1.10
2013-7-2,80.0,73.3,66.0,71.0,68.6,65.0,100,86,74,30.16,29.99,1,-592,12,0.01
2013-7-3,85.0,74.3,67.0,73.0,68.7,65.0,98,84,67,30.27,30.16,4,-457,12,0.01
2013-7-4,88.0,77.9,67.0,73.0,69.1,66.0,99,77,54,30.29,30.19,1,-685,17,0.01
2013-7-5,87.0,77.2,66.0,72.0,68.7,65.0,99,77,58,30.25,30.17,0,-733,21,0.00
2013-7-6,91.0,75.7,65.0,71.0,67.9,64.0,99,80,46,30.27,30.11,1,-521,12,0.00
2013-7-7,86.0,74.6,66.0,73.0,67.8,65.0,97,80,65,30.17,30.08,1,-691,18,0.02
2013-7-8,85.0,72.2,64.0,66.0,64.6,62.0,98,79,53,30.20,30.12,2,-556,10,0.02
2013-7-9,84.0,74.2,68.0,73.0,68.1,65.0,95,82,63,30.18,30.07,2,-586,9,0.00
2013-7-10,86.0,77.2,67.0,75.0,71.2,66.0,97,82,69,30.11,29.93,1,-749,9,0.28
2013-7-11,80.0,71.4,65.0,71.0,67.9,64.0,99,90,68,30.04,29.94,2,-576,7,1.09
2013-7-12,70.0,64.6,61.0,65.0,63.6,61.0,100,97,84,30.14,30.01,4,-74,10,1.56
2013-7-13,79.0,71.3,65.0,72.0,67.7,65.0,100,89,69,30.29,30.14,1,-516,5,0.20
2013-7-14,87.0,75.9,66.0,71.0,69.2,66.0,100,82,57,30.38,30.29,2,-909,13,0.08
2013-7-15,89.0,74.5,64.0,75.0,68.6,64.0,100,84,54,30.40,30.30,0,-629,5,0.01
2013-7-16,89.0,76.8,65.0,79.0,71.5,65.0,100,85,64,30.37,30.27,0,-648,10,0.00
2013-7-17,90.0,78.6,68.0,76.0,72.9,68.0,99,84,57,30.35,30.20,0,-744,6,0.00
2013-7-18,88.0,77.5,69.0,77.0,72.7,68.0,100,86,62,30.24,30.12,0,-670,8,0.05
2013-7-19,92.0,75.6,68.0,77.0,71.2,68.0,100,88,58,30.13,29.98,12,2,28,0.24
2013-7-20,89.0,77.8,68.0,72.0,67.5,-99.9,100,75,52,30.00,29.89,5,2,10,0.17
2013-7-21,83.0,72.4,65.0,72.0,67.9,63.0,98,86,65,30.03,29.97,4,1,7,0.04
2013-7-22,85.0,73.7,69.0,75.0,70.8,68.0,100,91,67,30.02,29.84,5,-122,9,0.11
2013-7-23,84.0,74.5,68.0,70.0,68.3,66.0,100,83,55,29.86,29.76,1,-487,11,0.16
2013-7-24,78.0,71.4,61.0,67.0,62.9,56.0,90,75,63,30.01,29.82,4,-53,13,0.08
2013-7-25,77.0,65.0,56.0,62.0,57.6,53.0,97,78,54,30.12,30.00,3,-420,7,0.00
2013-7-26,81.0,66.2,51.0,64.0,58.3,50.0,100,78,49,30.16,30.06,2,-367,6,0.00
2013-7-27,73.0,65.9,59.0,68.0,64.4,58.0,100,95,84,30.08,29.96,3,-150,9,0.08
2013-7-28,82.0,73.3,61.0,67.0,61.8,57.0,100,69,52,30.08,29.95,1,-741,10,0.04
2013-7-29,77.0,64.1,51.0,58.0,54.1,50.0,98,73,41,30.24,30.08,3,-445,11,0.02
2013-7-30,79.0,67.7,54.0,65.0,58.8,53.0,97,75,51,30.29,30.20,2,-446,6,0.00
2013-7-31,78.0,65.6,57.0,67.0,62.2,56.0,99,90,66,30.21,30.04,1,-515,7,0.04
2013-8-1,82.0,69.2,63.0,68.0,64.6,62.0,100,88,52,30.04,29.90,1,-910,9,0.05
2013-8-2,83.0,70.0,58.0,64.0,59.4,55.0,100,73,40,30.05,29.97,2,-599,15,0.01
2013-8-3,73.0,69.2,61.0,67.0,63.1,59.0,98,81,72,30.05,30.00,0,-978,8,0.34
2013-8-4,77.0,66.7,56.0,64.0,57.7,53.0,100,76,46,30.12,30.03,2,-514,16,0.33
2013-8-5,77.0,64.3,51.0,61.0,55.6,50.0,99,76,48,30.17,30.05,2,-433,7,0.00
2013-8-6,80.0,67.9,57.0,66.0,61.1,56.0,99,80,57,30.09,30.04,1,-578,8,0.06
2013-8-7,86.0,70.6,63.0,74.0,67.3,62.0,100,90,61,30.09,30.02,4,-854,10,0.19
2013-8-8,81.0,71.8,68.0,74.0,70.4,68.0,100,96,79,30.08,30.01,2,-628,7,0.54
2013-8-9,79.0,73.1,70.0,74.0,70.8,70.0,100,93,74,30.01,29.98,0,-999,15,0.11
2013-8-10,82.0,72.4,65.0,72.0,67.9,62.0,100,87,66,30.15,30.06,1,-616,7,0.15
2013-8-11,83.0,72.8,63.0,72.0,67.2,62.0,97,84,66,30.17,30.06,0,-911,7,0.02
2013-8-12,87.0,74.0,65.0,70.0,66.0,64.0,98,79,50,30.11,29.98,0,-999,7,0.00
2013-8-13,83.0,70.8,65.0,70.0,66.9,62.0,100,88,59,29.98,29.83,0,-999,11,1.00
2013-8-14,69.0,60.7,50.0,62.0,52.0,48.0,96,74,53,30.17,29.93,4,-435,15,0.01
2013-8-15,74.0,59.8,47.0,58.0,52.4,47.0,100,80,43,30.24,30.13,3,-456,7,0.01
2013-8-16,55.0,51.1,49.0,53.0,50.2,48.0,100,97,92,30.21,30.17,0,0,0,0.00
2013-8-17,73.0,68.3,64.0,62.0,61.0,60.0,88,78,65,30.27,30.26,0,-999,5,0.00
2013-8-18,66.0,62.4,59.0,62.0,60.8,59.0,99,95,86,30.31,30.22,3,-353,6,0.45
2013-8-19,80.0,67.7,61.0,70.0,64.6,61.0,100,90,63,30.22,30.11,1,-624,8,0.01
2013-8-20,82.0,69.8,59.0,68.0,63.8,59.0,100,84,58,30.25,30.16,0,-999,6,0.01
2013-8-21,84.0,69.3,60.0,73.0,66.4,60.0,100,92,65,30.26,30.15,0,-908,8,0.65
2013-8-22,84.0,73.0,64.0,69.0,66.4,64.0,99,81,57,30.16,30.04,2,-651,8,0.20
2013-8-23,70.0,65.6,58.0,68.0,63.9,58.0,100,94,75,30.19,30.03,0,-627,0,1.72
2013-8-24,78.0,64.0,54.0,67.0,59.7,54.0,100,88,50,30.37,30.19,0,-320,1,0.03
2013-8-25,80.0,64.0,53.0,66.0,56.6,-99.9,100,83,53,30.45,30.31,0,-387,0,0.00
2013-8-26,84.0,69.8,56.0,68.0,61.7,56.0,100,78,51,30.34,30.11,0,-641,0,0.00
2013-8-27,83.0,75.9,72.0,71.0,67.5,64.0,87,75,67,30.10,30.04,0,-999,0,0.05
2013-8-28,78.0,73.7,70.0,74.0,71.6,69.0,100,93,87,29.94,29.88,0,-999,1,0.67
2013-8-29,83.0,73.3,66.0,72.0,69.4,65.0,100,89,65,30.09,29.94,0,-999,0,0.09
2013-8-30,88.0,72.9,63.0,73.0,68.3,63.0,100,87,60,30.10,29.93,0,-999,1,0.00
2013-8-31,86.0,74.3,66.0,72.0,68.4,66.0,100,83,53,29.97,29.87,0,-999,1,0.00
2013-9-1,86.0,72.9,63.0,74.0,68.7,63.0,100,88,63,29.92,29.85,0,-999,0,0.01
2013-9-2,87.0,74.6,65.0,72.0,67.3,62.0,100,80,53,29.89,29.82,0,-999,0,0.01
2013-9-3,80.0,70.0,60.0,65.0,60.7,56.0,95,74,49,30.06,29.85,0,-999,0,0.01
2013-9-4,80.0,64.5,52.0,63.0,57.4,52.0,100,80,54,30.16,30.06,0,-999,0,0.01
2013-9-5,79.0,67.8,55.0,64.0,58.1,54.0,95,73,50,30.19,30.12,0,-999,0,0.00
2013-9-6,74.0,60.0,47.0,55.0,51.2,46.0,99,75,44,30.31,30.18,0,-999,0,0.00
2013-9-7,82.0,62.3,47.0,59.0,53.0,46.0,100,76,42,30.19,30.02,0,-999,0,0.00
2013-9-8,86.0,71.5,60.0,68.0,62.3,56.0,92,74,50,30.09,29.97,0,-999,0,0.00
2013-9-9,77.0,67.9,61.0,66.0,62.0,55.0,95,82,68,30.23,30.09,0,-999,0,0.00
2013-9-10,91.0,74.8,62.0,74.0,68.3,61.0,100,82,55,30.23,30.15,0,-999,0,0.00
2013-9-11,91.0,75.1,67.0,75.0,70.1,67.0,100,86,57,30.24,30.10,0,-999,0,0.68
2013-9-12,86.0,72.6,65.0,74.0,67.4,63.0,100,85,55,30.12,29.86,0,-999,0,0.70
2013-9-13,69.0,62.4,54.0,63.0,56.2,49.0,99,81,60,30.03,29.83,0,-999,0,0.21
2013-9-14,68.0,55.9,47.0,51.0,48.0,45.0,94,77,52,30.20,30.03,0,-999,0,0.10
2013-9-15,76.0,55.7,43.0,60.0,50.5,42.0,100,85,55,30.23,30.11,0,-999,0,0.00
2013-9-16,68.0,59.4,52.0,59.0,55.2,50.0,98,87,64,30.27,30.10,0,-999,0,0.03
2013-9-17,66.0,55.3,47.0,53.0,50.2,46.0,96,84,60,30.45,30.32,0,-999,0,0.00
2013-9-18,40.0,39.3,39.0,40.0,39.3,39.0,100,99,99,30.32,30.32,0,-999,0,0.00
2013-9-19,75.0,67.6,57.0,64.0,60.7,56.0,97,80,64,30.21,30.11,0,-999,0,0.00
2013-9-20,80.0,65.8,54.0,68.0,61.7,54.0,100,88,61,30.12,29.96,0,-999,0,0.00
2013-9-21,73.0,65.9,62.0,67.0,64.0,62.0,100,94,78,29.96,29.75,0,-999,0,0.02
2013-9-22,55.0,52.1,49.0,49.0,48.4,47.0,93,87,81,30.02,29.97,0,-999,0,0.01
2013-9-23,66.0,52.8,46.0,50.0,46.7,45.0,98,81,52,30.14,30.02,0,-999,0,0.00
2013-9-24,70.0,57.3,38.0,57.0,50.8,38.0,100,81,58,30.15,30.00,0,-999,0,0.00
2013-9-25,72.0,60.3,45.0,59.0,54.0,45.0,100,82,56,30.03,29.92,0,-999,0,0.00
2013-9-26,75.0,59.7,48.0,55.0,50.7,46.0,99,76,37,30.11,29.97,0,-999,0,0.00
2013-9-27,74.0,57.4,44.0,58.0,50.9,44.0,100,81,48,30.24,30.11,0,-999,0,0.00
2013-9-28,69.0,56.4,47.0,57.0,51.3,46.0,100,85,57,30.34,30.25,0,-999,0,0.00
2013-9-29,72.0,57.0,43.0,57.0,49.8,43.0,100,80,51,30.24,30.09,0,-999,0,0.00
2013-9-30,71.0,63.4,46.0,61.0,57.0,46.0,100,81,62,30.12,30.03,0,-999,0,0.00
2013-10-1,62.0,61.0,60.0,59.0,57.0,56.0,93,87,83,30.09,30.08,0,-999,0,0.00
2013-10-2,82.0,72.3,55.0,63.0,59.0,55.0,99,66,45,30.16,30.10,0,-999,0,0.00
2013-10-3,67.0,59.4,54.0,63.0,57.9,54.0,99,94,86,30.18,30.11,0,-999,0,0.00
2013-10-4,85.0,74.0,60.0,66.0,63.4,60.0,99,72,48,30.17,30.09,0,-999,0,0.00
2013-10-5,85.0,74.8,62.0,67.0,64.0,61.0,98,71,47,30.17,30.06,0,-999,0,0.00
2013-10-6,86.0,75.6,58.0,66.0,60.4,57.0,100,62,39,30.06,29.91,0,-999,0,0.00
2013-10-7,66.0,58.2,49.0,63.0,50.9,44.0,93,77,62,30.13,29.80,0,-999,0,0.56
2013-10-8,66.0,54.7,42.0,48.0,45.1,41.0,98,72,47,30.33,30.13,0,-999,0,0.03
2013-10-9,60.0,53.9,41.0,49.0,46.8,40.0,99,78,65,30.37,30.29,0,-999,0,0.00
2013-10-10,55.0,53.0,50.0,54.0,50.8,47.0,99,93,82,30.24,30.12,0,-999,0,0.23
2013-10-11,58.0,55.3,52.0,58.0,55.0,52.0,100,99,97,30.12,30.05,0,-999,0,0.22
2013-10-12,62.0,59.0,57.0,62.0,58.9,57.0,100,99,97,30.23,30.07,0,-999,0,0.20
2013-10-13,57.0,56.5,56.0,57.0,56.5,56.0,100,100,99,30.34,30.23,0,-999,0,0.17
2013-10-14,60.0,57.3,56.0,59.0,56.9,56.0,100,98,93,30.35,30.27,0,-999,0,0.05
2013-10-15,68.0,59.3,54.0,59.0,56.1,53.0,100,90,69,30.29,30.10,0,-999,0,0.01
2013-10-16,69.0,58.2,48.0,60.0,54.4,48.0,100,88,66,30.11,29.95,0,-999,0,0.00
2013-10-17,67.0,61.5,55.0,64.0,58.6,49.0,97,90,79,29.95,29.73,0,-999,0,0.10
2013-10-18,65.0,55.5,44.0,45.0,41.4,39.0,88,61,38,30.05,29.98,0,-999,0,0.07
2013-10-19,59.0,47.4,37.0,52.0,43.0,36.0,99,86,63,30.03,29.80,0,-999,0,0.00
2013-10-20,61.0,52.6,42.0,38.0,34.9,32.0,80,53,34,30.10,30.04,0,-999,0,0.00
2013-10-21,70.0,55.5,33.0,44.0,40.9,32.0,97,62,36,30.13,29.94,0,-999,0,0.00
2013-10-22,57.0,48.6,42.0,46.0,39.4,31.0,95,73,39,29.95,29.86,0,-999,0,0.00
2013-10-23,39.0,36.4,34.0,36.0,34.8,33.0,97,94,90,29.92,29.77,0,-999,0,0.14
2013-10-24,46.0,40.5,35.0,32.0,30.7,28.0,87,69,56,30.14,30.00,0,-999,0,0.03
2013-10-25,40.0,37.0,29.0,30.0,28.7,26.0,89,72,61,30.32,30.14,0,-999,0,0.01
2013-10-26,57.0,42.0,24.0,32.0,26.1,23.0,96,60,27,30.32,29.94,0,-999,0,0.00
2013-10-27,57.0,48.7,38.0,37.0,34.3,31.0,83,59,41,30.14,29.99,0,-999,0,0.00
2013-10-28,61.0,45.8,32.0,44.0,37.2,31.0,97,75,46,30.27,30.13,0,-999,0,0.00
2013-10-29,63.0,51.0,34.0,43.0,40.1,33.0,95,68,48,30.39,30.29,0,-999,0,0.00
2013-10-30,65.0,53.5,45.0,55.0,47.2,40.0,87,80,68,30.32,30.16,0,-999,0,0.00
2013-10-31,69.0,61.8,54.0,59.0,55.8,53.0,97,82,63,30.10,29.72,0,-999,0,0.01
2013-11-1,70.0,64.4,58.0,60.0,50.4,43.0,85,62,38,29.75,29.54,0,-999,0,0.10
2013-11-2,58.0,51.3,47.0,45.0,41.2,37.0,81,69,54,29.93,29.70,9,-425,23,0.01
2013-11-3,54.0,45.4,34.0,38.0,31.2,26.0,84,59,35,30.43,29.94,8,4,15,0.03
2013-11-4,36.0,32.0,27.0,28.0,26.0,22.0,88,79,68,30.59,30.43,5,2,8,0.01
2013-11-5,51.0,41.4,30.0,33.0,29.6,27.0,87,64,43,30.59,30.43,4,1,7,0.00
2013-11-6,68.0,51.9,34.0,52.0,42.9,29.0,98,74,54,30.43,30.06,9,3,19,0.00
2013-11-7,60.0,47.5,39.0,51.0,36.2,25.0,78,65,54,30.13,29.90,8,4,16,0.00
2013-11-8,46.0,40.3,30.0,29.0,26.5,25.0,80,58,45,30.30,30.11,11,4,19,0.00
2013-11-9,60.0,41.4,27.0,31.0,25.1,-99.9,91,59,28,30.30,30.03,6,2,10,0.00
2013-11-10,54.0,48.2,40.0,36.0,30.0,24.0,61,49,32,30.27,30.01,13,6,29,0.00
2013-11-11,61.0,45.3,29.0,31.0,21.9,7.0,87,49,12,30.29,30.03,9,3,20,0.00
2013-11-12,36.0,32.2,28.0,27.0,22.0,17.0,81,66,51,30.43,30.22,8,5,17,0.01
2013-11-13,37.0,30.4,25.0,23.0,18.9,15.0,84,62,47,30.50,30.37,8,4,21,0.01
2013-11-14,59.0,41.3,24.0,21.0,15.8,7.0,71,40,16,30.37,30.22,8,3,17,0.00
2013-11-15,61.0,49.0,33.0,40.0,22.2,18.0,82,38,19,30.27,30.16,6,2,10,0.01
2013-11-16,63.0,50.0,40.0,49.0,42.7,-99.9,99,81,60,30.29,30.17,3,1,5,0.04
2013-11-17,62.0,56.3,49.0,56.0,51.7,46.0,93,85,75,30.18,29.70,9,4,18,0.06
2013-11-18,59.0,53.9,45.0,56.0,36.1,28.0,91,52,31,29.99,29.70,12,7,26,0.13
2013-11-19,43.0,37.4,29.0,29.0,25.7,23.0,78,63,51,30.37,30.01,8,4,24,0.00
2013-11-20,46.0,32.4,23.0,27.0,21.7,19.0,92,68,35,30.51,30.36,6,2,10,0.00
2013-11-21,48.0,35.2,25.0,35.0,28.5,20.0,87,76,60,30.50,30.34,4,2,8,0.00
2013-11-22,55.0,48.0,39.0,53.0,44.0,35.0,96,86,80,30.34,30.06,6,2,13,0.01
2013-11-23,48.0,36.9,26.0,44.0,26.0,-99.9,87,68,49,30.22,30.10,8,5,20,0.02
2013-11-24,24.0,20.6,15.0,14.0,9.2,7.0,77,61,49,30.48,30.25,9,4,16,0.00
2013-11-25,40.0,25.8,12.0,21.0,12.1,7.0,85,59,31,30.48,30.24,4,1,7,0.00
2013-11-26,35.0,33.3,32.0,32.0,27.6,18.0,98,82,52,30.25,29.69,5,2,10,1.17
2013-11-27,35.0,31.2,23.0,33.0,27.8,15.0,99,87,69,30.05,29.61,3,0,6,0.73
2013-11-28,33.0,26.4,22.0,25.0,18.5,13.0,88,72,53,30.41,30.05,9,4,17,0.01
2013-11-29,41.0,31.2,24.0,25.0,22.6,20.0,90,72,47,30.65,30.41,8,2,11,0.02
2013-11-30,35.0,25.8,18.0,26.0,20.2,-99.9,95,83,67,30.65,30.32,4,1,6,0.01
2013-12-1,50.0,36.6,22.0,37.0,29.9,21.0,95,78,51,30.27,29.99,5,2,9,0.00
2013-12-2,50.0,42.7,37.0,39.0,37.1,34.0,89,81,66,29.99,29.83,4,1,5,0.00
2013-12-3,55.0,42.9,35.0,41.0,37.2,33.0,95,82,57,29.96,29.85,4,1,7,0.00
2013-12-4,59.0,44.6,35.0,46.0,39.4,34.0,97,83,62,30.04,29.96,6,2,8,0.00
2013-12-5,67.0,51.6,39.0,56.0,47.5,38.0,100,87,67,30.03,29.91,5,2,8,0.03
2013-12-6,53.0,43.3,36.0,53.0,41.8,35.0,99,95,85,30.16,29.89,8,4,15,1.96
2013-12-7,34.0,31.5,23.0,34.0,25.9,-99.9,98,83,72,30.50,30.16,7,2,15,1.00
2013-12-8,24.0,23.1,21.0,22.0,21.4,19.0,96,93,86,30.50,30.26,4,2,7,0.00
2013-12-9,44.0,33.4,25.0,41.0,29.9,24.0,98,88,70,30.23,30.00,12,4,20,0.58
2013-12-10,36.0,31.8,28.0,32.0,24.7,16.0,98,75,61,30.18,29.98,9,4,25,0.10
2013-12-11,40.0,31.0,22.0,20.0,15.4,11.0,73,54,33,30.33,30.18,8,4,21,0.01
2013-12-12,32.0,25.4,21.0,19.0,9.9,6.0,64,52,41,30.38,30.19,9,5,22,0.01
2013-12-13,40.0,31.8,26.0,22.0,14.4,8.0,71,49,37,30.25,30.18,13,5,24,0.00
2013-12-14,33.0,31.0,30.0,33.0,26.8,-99.9,99,89,71,30.25,29.72,4,1,6,0.07
2013-12-15,41.0,33.5,30.0,37.0,28.5,23.0,100,82,72,29.93,29.63,14,7,26,0.35
2013-12-16,33.0,31.1,29.0,27.0,25.2,22.0,89,79,67,30.10,29.93,10,4,21,0.01
2013-12-17,42.0,34.0,29.0,36.0,29.3,24.0,94,84,68,30.07,29.90,8,3,18,0.04
2013-12-18,36.0,32.1,29.0,26.0,22.0,19.0,81,66,54,30.17,29.97,11,6,22,0.01
2013-12-19,59.0,42.7,25.0,36.0,27.2,19.0,78,57,33,30.15,30.06,12,4,25,0.01
2013-12-20,61.0,47.9,35.0,45.0,36.3,29.0,80,65,43,30.09,29.96,5,2,22,0.00
2013-12-21,71.0,56.0,46.0,58.0,46.9,-99.9,93,76,51,30.00,29.85,9,2,17,0.01
2013-12-22,65.0,61.5,55.0,59.0,55.2,51.0,92,80,70,29.98,29.76,8,4,16,0.05
2013-12-23,58.0,47.1,32.0,54.0,41.3,25.0,98,80,70,30.25,29.96,10,4,19,0.14
2013-12-24,32.0,27.5,17.0,25.0,18.1,9.0,75,67,52,30.44,30.20,10,4,19,0.05
2013-12-25,34.0,24.0,16.0,20.0,13.7,9.0,79,65,45,30.47,30.25,4,1,11,0.00
2013-12-26,40.0,33.5,25.0,27.0,20.6,17.0,77,60,42,30.33,30.17,10,4,22,0.00
2013-12-27,46.0,37.0,25.0,22.0,18.9,14.0,74,50,27,30.37,30.30,10,4,21,0.00
2013-12-28,56.0,45.3,32.0,26.0,20.9,-99.9,66,42,28,30.31,30.11,9,3,15,0.00
2013-12-29,48.0,41.9,38.0,43.0,37.6,26.0,99,86,53,30.11,29.62,13,4,21,1.37
2013-12-30,43.0,36.3,31.0,37.0,29.2,22.0,83,75,67,30.13,29.84,14,7,29,0.01
2013-12-31,34.0,30.6,27.0,23.0,20.4,17.0,73,65,54,30.26,30.07,10,5,30,0.01
2014-1-1,50.0,33.3,24.0,26.0,21.7,18.0,82,64,38,30.33,30.07,4,1,9,0.00
2014-1-2,32.0,28.4,24.0,27.0,25.2,16.0,96,88,72,30.07,29.64,9,2,25,0.00